User: anonymous
Location: Unspecified
(0.0000°N, 0.0000°E)
Time: 04:12:12
(UTC+02:00)
Language:

YAOGAN 3 - Orbit

View from above orbital plane
View from above orbital plane
View from above satellite
View from above satellite

Ground track
Ground track

The orbit data is extracted from the following two-line orbital elements,

1 32289U 07055A   14293.42023671  .00001314  00000-0  17207-3 0  6957
2 32289 097.9487 284.4415 0001216 074.3365 285.7983 14.82053499375075
Epoch (UTC): 20 October 2014 10:05:08
Eccentricity: 0.0001216
inclination: 97.9487°
perigee height: 622 km
apogee height: 624 km
right ascension of ascending node: 284.4415°
argument of perigee: 74.3365°
revolutions per day: 14.82053499
mean anomaly at epoch: 285.7983°
orbit number at epoch: 37507

The dashed part of the orbit path shows where the satellite is in the earth's shadow,  

DLR